Weather History for Key West NAF, FL

Change the Weather History Date:

Wednesday, March 13, 2013

  Actual Average Record
Temperature  
Mean Temperature 68 °F -  
Max Temperature 73 °F 78 °F 84 °F (1984)
Min Temperature 64 °F 69 °F 55 °F (1959)
Cooling Degree Days 4    
Growing Degree Days 18 (Base 50)    
Moisture  
Dew Point 56 °F    
Average Humidity 65    
Maximum Humidity 84    
Minimum Humidity 44    
Precipitation  
Precipitation 0.00 in - - ()
Sea Level Pressure  
Sea Level Pressure 30.08 in    
Wind  
Wind Speed 15 mph (North)    
Max Wind Speed 22 mph    
Max Gust Speed 28 mph    
Visibility 10 miles    
Events      
Averages and records for this station are not official NWS values.
T = Trace of Precipitation, MM = Missing Value Source: NWS Daily Summary

Daily Weather History Graph

Daily Weather History Graph

Search for Another Location

Airport:

Trip Planner

Search our weather history database for the weather conditions in past years. The results will help you decide how hot, cold, wet, or windy it might be!

Date:

Astronomy

Mar. 13, 2013 Rise Set
Actual Time 7:37 AM EDT 7:35 PM EDT
Civil Twilight 7:14 AM EDT 7:57 PM EDT
Nautical Twilight 6:48 AM EDT 8:24 PM EDT
Astronomical Twilight 6:22 AM EDT 8:50 PM EDT
Moon 8:32 AM EDT (3/13) 9:30 PM EDT (3/13)
Length of Visible Light 12h 42m
Length of Day
11h 57m
Waxing Crescent, 4% of the Moon is Illuminated
Mar 13
Waxing Crescent
Mar 19
First Quarter
Mar 27
Full
Apr 3
Last Quarter
Apr 10
New

Hourly Weather History & Observations

Time (EDT) Temp. Dew Point Humidity Pressure Visibility Wind Dir Wind Speed Gust Speed Precip Events Conditions
12:16 AM 69.8 °F 64.4 °F 83% 30.04 in 10.0 mi North 12.7 mph - N/A   Overcast
12:53 AM 68.0 °F 63.0 °F 84% 30.04 in 10.0 mi North 11.5 mph - N/A   Overcast
1:53 AM 68.0 °F 63.0 °F 84% 30.04 in 10.0 mi North 12.7 mph - N/A   Overcast
2:53 AM 68.0 °F 63.0 °F 84% 30.02 in 10.0 mi North 13.8 mph - N/A   Overcast
3:33 AM 68.0 °F 60.8 °F 78% 30.01 in 10.0 mi North 13.8 mph - N/A   Overcast
3:53 AM 68.0 °F 62.1 °F 81% 30.01 in 10.0 mi North 16.1 mph - N/A   Overcast
4:53 AM 66.9 °F 55.9 °F 68% 30.01 in 10.0 mi North 16.1 mph - N/A   Overcast
5:53 AM 66.9 °F 55.0 °F 66% 30.03 in 10.0 mi North 15.0 mph - N/A   Overcast
6:53 AM 66.9 °F 55.0 °F 66% 30.05 in 9.0 mi North 17.3 mph - N/A   Overcast
7:53 AM 64.9 °F 55.9 °F 73% 30.06 in 10.0 mi North 18.4 mph 24.2 mph N/A   Overcast
8:53 AM 66.0 °F 57.0 °F 73% 30.09 in 10.0 mi North 17.3 mph 27.6 mph N/A   Mostly Cloudy
9:53 AM 66.9 °F 55.0 °F 66% 30.12 in 10.0 mi North 17.3 mph - N/A   Mostly Cloudy
10:53 AM 68.0 °F 53.1 °F 59% 30.13 in 10.0 mi North 19.6 mph 25.3 mph N/A   Mostly Cloudy
11:53 AM 69.1 °F 50.0 °F 51% 30.14 in 10.0 mi North 21.9 mph 26.5 mph N/A   Mostly Cloudy
12:53 PM 70.0 °F 48.9 °F 47% 30.14 in 10.0 mi North 17.3 mph 23.0 mph N/A   Mostly Cloudy
1:53 PM 71.1 °F 48.9 °F 45% 30.12 in 10.0 mi North 17.3 mph 25.3 mph N/A   Mostly Cloudy
2:53 PM 73.0 °F 50.0 °F 44% 30.09 in 10.0 mi North 18.4 mph 25.3 mph N/A   Mostly Cloudy
3:53 PM 70.0 °F 48.9 °F 47% 30.07 in 10.0 mi North 18.4 mph - N/A   Mostly Cloudy
4:53 PM 71.1 °F 52.0 °F 51% 30.07 in 10.0 mi North 19.6 mph 24.2 mph N/A   Mostly Cloudy
5:53 PM 70.0 °F 53.1 °F 55% 30.07 in 10.0 mi North 16.1 mph 24.2 mph N/A   Mostly Cloudy
6:53 PM 69.1 °F 54.0 °F 58% 30.08 in 10.0 mi North 16.1 mph - N/A   Mostly Cloudy
7:53 PM 68.0 °F 55.9 °F 65% 30.09 in 10.0 mi NNW 17.3 mph - N/A   Mostly Cloudy
8:53 PM 68.0 °F 55.9 °F 65% 30.11 in 10.0 mi North 15.0 mph 21.9 mph N/A   Mostly Cloudy
9:53 PM 68.0 °F 55.9 °F 65% 30.12 in 10.0 mi North 17.3 mph - N/A   Mostly Cloudy
10:53 PM 68.0 °F 55.0 °F 63% 30.14 in 10.0 mi NNW 16.1 mph - N/A   Clear
11:53 PM 66.9 °F 55.9 °F 68% 30.15 in 10.0 mi NNW 15.0 mph 23.0 mph N/A   Clear